Regional Weather Roundup
Issued by NWS

Home | Current Version | Previous Version | Text Only | Print | Product List | Glossary On
Versions: 1 2 3 4 5 6 7 8 9 10 11 12 13 14 15 16 17 18 19 20 21 22 23 24 25 26 27 28 29 30 31 32 33 34 35 36 37 38 39 40 41 42 43 44 45 46 47 48 49 50
797
ASUS43 KIND 070259
RWRIN

WEATHER ROUNDUP FOR INDIANA
NATIONAL WEATHER SERVICE INDIANAPOLIS IN
1000 PM EST FRI DEC 06 2019

NOTE: "FAIR" INDICATES FEW OR NO CLOUDS BELOW 12,000 FEET WITH NO
SIGNIFICANT WEATHER AND/OR OBSTRUCTIONS TO VISIBILITY.

* - STATION DOES NOT REPORT WEATHER SUCH AS PRECIPITATION OR FOG.

+ - STATION NOT QUALITY CONTROLLED BY THE NATIONAL WEATHER SERVICE.
    USE DATA WITH CAUTION...ESPECIALLY DEWPOINT AND RELATIVE
    HUMIDITY OBSERVATIONS.

INZ001>003-010>013-019-020-070400-
NORTHWEST INDIANA

CITY           SKY/WX    TMP DP  RH WIND       PRES   REMARKS
GARY /AIRPORT/ PTCLDY    28  23  80 NE5       30.37F WCI  23
KNOX *+        FAIR      27  23  86 CALM      30.37S
MICHIGAN CITY+ FAIR      27  27 100 CALM      30.38S
MONTICELLO +   FAIR      24  20  83 N5        30.37S WCI  18
RENSSELAER +   FAIR      25  21  86 CALM      30.38S

$$

LMZ046-743>745-070400-
SOUTHERN LAKE MICHIGAN

STATION/POSITION TIME  TEMP    WIND        PRES    WAVE
                       AIR SEA DIR/SP/G            HT
                 (UTC) (F)     (DEG/KT/KT) (MB)    (FT)
MICHIGAN CITY    0230   34      20/  9/ 10   N/A

$$

INZ004-005-014>016-021>024-070400-
NORTH CENTRAL INDIANA

CITY           SKY/WX    TMP DP  RH WIND       PRES   REMARKS
GOSHEN         FAIR      28  22  78 N6        30.36R WCI  22
PERU/GRISSOM   FAIR      28  24  84 NW6       30.35R WCI  22
ROCHESTER +    FAIR      30  23  74 CALM      30.37R
SOUTH BEND     FAIR      24  18  77 CALM      30.37S
WARSAW +       FAIR      28  23  80 N3        30.36R

$$

INZ006>009-017-018-025>027-070400-
NORTHEAST INDIANA

CITY           SKY/WX    TMP DP  RH WIND       PRES   REMARKS
ANGOLA *+      FAIR      25  19  80 CALM      30.34R
FORT WAYNE     FAIR      28  21  75 N5        30.36R WCI  23
KENDALLVILLE + FAIR      27  19  69 CALM      30.35R

$$

INZ028-029-035-036-043>045-051>053-070400-
WEST CENTRAL INDIANA

CITY           SKY/WX    TMP DP  RH WIND       PRES   REMARKS
CRAWFORDSVL +  FAIR      27  22  82 N5        30.36R WCI  22
LAFAYETTE      FAIR      28  22  78 N5        30.37R WCI  23
TERRE HAUTE    FAIR      32  25  75 NE6       30.36R WCI  26

$$

INZ030>032-037>040-046>048-054>057-064-065-070400-
CENTRAL INDIANA

CITY           SKY/WX    TMP DP  RH WIND       PRES   REMARKS
ANDERSON +     FAIR      30  25  80 N3        30.34S
COLUMBUS       CLEAR     30  25  80 N6        30.34R WCI  24
FRANKFORT +    FAIR      31  25  77 N3        30.37R
INDIANAPOLIS   FAIR      32  25  75 N10       30.35R WCI  24
-EAGLE CREEK   FAIR      31  24  75 N8        30.34R WCI  23
KOKOMO +       FAIR      28  25  88 NW5       30.37R WCI  23
MT COMFORT *+  FAIR      27  27 100 N8        30.34R WCI  18
SHELBYVILLE    FAIR      31  24  75 N5        30.33R WCI  26

$$

INZ033-034-041-042-049-050-058-059-070400-
EAST CENTRAL INDIANA

CITY           SKY/WX    TMP DP  RH WIND       PRES   REMARKS
MUNCIE         FAIR      29  23  78 N3        30.34R
PORTLAND +     FAIR      30  21  69 CALM      30.33S
RICHMOND +     FAIR      30  28  93 N6        30.32R WCI  24

$$

INZ060-061-067>069-081>083-085>088-070400-
SOUTHWEST INDIANA

CITY           SKY/WX    TMP DP  RH WIND       PRES   REMARKS
EVANSVILLE     CLOUDY    40  30  67 N8        30.33R WCI  34

$$

INZ062-063-066-070>080-084-089>092-070400-
SOUTH CENTRAL AND SOUTHEAST INDIANA

CITY           SKY/WX    TMP DP  RH WIND       PRES   REMARKS
BATESVILLE +   CLEAR     30  28  93 CALM      30.32R
BLOOMINGTON    FAIR      29  24  82 N8        30.33R WCI  21
FRENCH LICK *+ FAIR      36  30  80 NE6       30.32R WCI  31
SEYMOUR +      FAIR      36  30  80 N7        30.34R WCI  30

$$





USA.gov is the U.S. government's official web portal to all federal, state and local government web resources and services.